Theta_e
356 355 353 353 354 354 354 352 351 349 348 348 349 352 352 357 369 374 368 363 359 354 350 349 351 353 354 355 355 354 354 352 350 347 344 346 349 351 349 343 341 342 344 346 347 347 347 348 348 349 349 351 351 350 350 350 351 351 351 351 351 352 352 349 349 348 345 344 344 346 348 340 334 338
357 356 354 354 353 353 354 354 353 351 350 349 348 352 354 353 360 367 367 366 362 356 353 351 353 354 353 354 354 354 353 350 349 349 345 343 346 348 346 342 342 343 345 347 348 347 348 349 349 349 349 350 350 349 350 350 350 350 350 350 350 351 352 348 348 348 344 344 343 343 347 343 335 337
356 355 354 354 354 354 354 355 354 352 351 351 349 350 353 354 354 358 363 367 364 358 356 356 355 355 353 353 353 354 354 350 348 349 346 342 343 344 344 344 345 345 345 348 348 348 350 351 350 349 349 349 349 349 349 349 348 349 349 349 349 350 351 349 347 348 345 344 344 342 344 344 337 336
356 356 354 355 356 357 357 356 356 355 352 351 351 350 351 354 357 356 359 365 365 360 358 359 357 356 353 352 353 354 354 351 349 349 347 345 344 344 345 346 347 347 347 349 349 350 352 353 351 350 350 349 349 348 346 345 345 346 347 347 348 348 350 350 348 347 345 344 344 343 343 345 341 336
358 357 355 355 355 357 358 357 356 355 353 351 350 349 349 352 355 355 356 362 364 361 359 358 358 357 355 353 354 355 354 353 352 350 348 347 346 345 345 346 348 348 348 349 350 351 353 353 352 352 351 350 349 345 341 339 340 344 346 346 346 346 348 351 350 348 346 345 345 345 343 344 343 339
359 358 357 356 356 356 357 358 357 355 353 352 351 350 350 351 352 354 357 359 360 360 360 359 358 357 356 354 353 354 354 354 352 351 349 348 347 345 345 348 351 350 349 350 351 352 353 353 353 353 353 350 346 340 334 334 338 343 346 346 346 346 347 349 351 351 350 347 345 346 345 344 344 342
359 359 359 357 357 357 356 356 355 354 354 353 354 353 353 353 353 355 357 357 357 360 360 360 359 358 356 355 354 355 354 353 352 351 350 349 349 349 348 350 352 351 350 351 352 354 354 353 353 354 353 349 342 334 330 332 339 344 346 346 346 347 347 349 350 352 352 350 346 346 346 345 345 345
359 359 359 359 358 357 356 356 355 355 355 354 355 355 355 354 354 355 356 356 357 359 360 361 361 359 357 357 356 356 354 353 353 351 350 349 351 352 352 352 351 351 352 352 353 354 354 353 353 354 353 346 336 331 331 333 338 342 344 344 345 347 349 350 351 352 353 353 349 346 346 346 346 346
358 358 358 359 358 357 357 357 355 355 355 355 354 355 355 355 355 355 356 357 357 359 361 362 360 358 356 356 355 355 354 353 353 352 351 352 352 352 354 353 351 351 351 352 353 354 354 354 354 354 351 343 333 332 332 333 337 340 341 341 342 345 348 351 353 353 353 354 353 349 346 345 345 346
358 358 357 358 357 357 358 357 356 356 356 355 355 354 355 356 357 357 356 357 358 358 358 358 356 356 357 356 355 354 353 353 353 353 353 353 352 352 353 353 352 351 350 350 352 353 354 354 353 353 350 342 334 333 334 333 335 337 338 339 339 340 343 346 350 352 353 354 354 352 349 346 345 346
359 358 358 358 357 357 357 357 356 355 355 356 356 356 355 356 357 357 355 356 359 358 357 355 356 358 359 359 358 358 355 353 354 354 352 352 352 351 351 351 352 351 349 350 352 354 354 353 353 352 348 341 336 334 334 333 332 334 335 337 337 336 337 338 341 345 348 350 352 353 352 349 345 346
357 357 357 358 357 356 357 356 354 354 355 357 358 358 357 357 358 358 355 356 359 361 359 359 359 360 360 361 361 361 360 358 356 353 350 350 350 350 349 349 350 351 351 351 353 355 354 353 353 350 344 340 337 335 334 332 331 331 332 334 335 334 333 334 334 336 339 342 344 347 350 351 348 346
356 356 355 356 355 354 354 354 354 354 354 355 356 356 357 356 356 359 359 359 360 360 360 361 360 359 360 360 359 360 361 361 358 351 348 348 349 349 348 349 351 353 354 352 352 354 355 354 354 350 342 338 337 336 334 331 329 329 330 331 333 333 333 333 332 332 333 334 336 339 344 348 349 348
357 357 356 355 354 353 353 353 354 354 353 354 355 355 355 353 355 359 361 361 361 359 359 358 358 358 358 357 357 357 358 360 358 350 347 349 350 351 350 351 353 355 356 355 354 355 355 353 355 352 342 336 337 337 334 331 328 327 327 328 329 330 331 331 331 332 331 331 332 334 337 341 343 345
359 359 357 357 356 354 353 352 352 353 353 354 354 353 353 354 356 358 359 360 360 359 359 357 356 357 357 356 357 356 358 361 358 351 349 351 352 352 353 353 352 354 357 357 356 355 354 353 354 350 341 338 340 339 334 331 327 326 325 324 324 325 327 328 329 329 330 331 331 331 332 334 335 337
358 359 358 358 357 356 355 353 353 353 353 352 352 352 353 353 355 356 357 358 358 358 360 358 356 356 357 357 357 355 356 360 357 352 352 354 352 353 354 353 352 353 356 356 356 356 354 354 352 347 342 342 342 340 336 331 329 329 328 324 322 322 322 323 324 325 326 327 329 330 330 333 335 336
354 356 358 359 359 358 358 357 355 354 354 353 353 353 354 354 355 355 356 357 357 358 359 358 357 357 357 358 356 355 356 358 357 355 354 356 355 353 353 352 352 355 356 354 355 355 354 353 351 347 344 344 342 340 337 333 331 332 330 325 323 322 321 320 319 321 322 323 325 328 330 334 337 338
353 354 357 360 360 360 359 357 356 355 355 356 357 356 355 356 357 357 356 357 358 358 357 358 358 358 357 357 356 356 357 358 358 357 355 356 357 354 353 353 355 356 355 351 352 353 353 353 352 348 343 342 342 340 337 334 333 332 329 327 326 325 323 320 318 319 318 318 319 323 327 333 338 338
353 354 357 359 361 360 358 357 358 359 359 358 357 357 357 357 357 357 356 355 356 356 355 355 355 355 355 356 356 356 357 358 359 357 355 355 354 354 355 355 356 355 350 347 348 349 350 352 352 349 343 341 342 340 336 335 334 332 330 328 327 328 325 321 320 321 319 316 315 316 319 325 331 334
355 356 357 357 359 359 357 357 359 360 360 359 357 357 358 358 357 356 355 355 355 354 353 353 353 353 353 354 355 356 357 359 359 357 355 355 355 356 357 354 354 353 346 342 343 344 345 347 349 349 345 341 341 339 336 335 334 331 330 329 328 328 325 323 323 323 322 320 315 312 313 316 321 328
356 356 354 353 355 357 355 356 358 358 358 357 355 356 356 356 356 356 355 354 354 353 353 352 352 353 353 353 356 357 357 358 358 354 353 356 356 357 356 353 353 350 342 339 340 340 343 344 342 345 345 342 340 338 335 335 334 332 330 329 329 329 326 325 325 324 324 323 319 313 311 313 320 328
355 355 353 352 353 354 353 354 358 358 357 355 353 354 355 355 354 355 354 354 354 353 353 352 351 352 352 352 355 356 356 357 355 351 350 353 355 356 356 353 351 345 339 338 338 338 341 342 338 339 340 339 339 338 335 334 333 332 331 330 330 329 326 326 326 325 324 324 322 317 313 314 323 330
353 353 352 350 351 352 352 353 355 354 352 350 349 350 352 352 353 353 353 354 354 353 352 352 351 352 351 351 353 354 354 355 354 350 349 350 351 352 353 351 349 343 337 335 336 337 339 339 336 334 333 335 338 338 336 336 334 333 332 331 330 329 327 327 327 326 325 324 323 321 318 316 321 328
351 351 350 349 348 350 350 350 351 350 349 348 348 348 349 349 351 352 352 352 352 351 351 351 351 351 351 351 352 351 352 354 352 351 352 351 351 352 352 350 348 342 334 331 331 335 337 336 333 331 330 333 335 334 334 334 332 333 333 332 330 330 328 328 328 326 325 325 324 323 322 319 317 320
349 348 349 347 345 345 344 343 342 342 342 342 342 342 343 343 344 346 348 349 349 350 351 351 350 351 351 352 351 350 350 351 350 349 351 349 347 349 350 350 345 336 329 327 328 332 334 332 330 328 328 328 328 328 327 325 325 330 334 332 330 330 329 328 329 327 325 325 325 324 324 322 319 317
343 344 345 344 341 339 337 333 331 331 332 333 334 334 334 335 336 337 339 341 342 343 346 349 350 350 350 351 351 349 349 347 343 343 345 343 342 343 345 345 340 331 326 325 325 327 329 329 327 326 326 326 326 325 324 322 323 329 332 330 327 329 329 328 328 328 326 324 325 325 325 324 321 321
335 336 336 334 330 327 327 327 329 332 334 335 336 336 335 336 337 337 338 339 339 339 342 346 349 349 349 350 350 348 345 341 336 335 336 337 337 337 337 336 333 328 324 321 320 323 326 327 326 325 324 324 325 326 325 325 325 326 328 328 326 326 328 328 328 329 328 325 323 324 326 325 322 322
328 326 323 320 318 320 326 333 336 337 338 337 336 336 337 338 339 339 340 340 340 340 342 344 347 348 349 350 348 343 338 335 332 331 330 329 328 328 328 328 326 324 320 316 314 317 320 323 323 323 322 323 324 326 326 325 325 325 326 326 326 326 327 328 327 328 328 326 322 321 325 325 322 323
321 319 317 318 321 326 333 338 338 338 338 337 335 336 336 338 339 340 340 340 341 342 343 345 347 347 347 345 342 337 332 329 328 327 326 324 323 322 323 324 323 323 321 318 317 318 318 317 316 316 319 322 323 324 325 324 325 326 323 323 326 327 325 326 327 326 327 326 321 319 323 325 323 323
317 317 319 322 327 333 337 339 339 339 338 336 334 335 336 336 338 339 339 340 341 342 343 343 342 340 337 335 332 330 328 327 327 326 326 325 324 323 323 323 323 323 322 322 322 321 320 318 314 314 319 323 324 324 324 325 325 324 321 323 327 327 323 324 326 326 326 324 320 319 323 324 323 324
315 317 324 329 333 336 339 339 339 339 337 334 333 334 334 335 336 337 337 338 339 340 338 336 333 330 329 328 327 327 328 328 329 328 328 328 327 326 325 324 323 323 322 323 323 322 321 321 318 317 319 322 323 324 325 325 324 323 324 326 327 325 323 324 325 324 323 321 318 320 323 323 323 324
318 323 331 333 335 337 339 338 338 336 335 333 332 332 333 333 333 333 333 333 333 333 331 329 328 327 327 328 327 327 327 327 326 325 325 326 326 326 324 323 323 322 322 323 323 322 321 320 319 318 319 320 322 323 324 324 324 324 325 325 325 324 323 323 323 322 321 318 318 321 323 322 322 323
327 331 335 335 336 338 338 337 336 334 333 332 331 331 331 331 331 331 331 330 329 329 328 328 328 328 328 327 326 324 323 322 321 321 322 324 325 325 324 322 322 322 322 321 321 322 321 319 317 317 318 320 321 323 323 323 323 321 320 321 322 323 323 322 322 320 317 317 320 322 321 321 322 322
333 335 336 336 335 336 335 334 334 333 332 331 330 330 329 329 329 329 329 329 330 329 329 329 328 326 325 324 322 321 321 322 322 323 324 324 324 324 322 321 320 320 320 321 321 321 320 318 317 317 318 320 321 321 321 322 322 320 318 319 321 322 321 321 320 318 316 318 321 320 319 320 321 320
334 333 334 334 333 333 332 332 332 332 331 330 329 329 329 328 327 327 327 327 327 326 326 325 324 323 322 322 321 322 323 323 323 323 323 323 322 322 321 320 320 319 319 320 320 319 319 318 317 318 320 321 323 322 321 320 320 320 319 319 320 320 319 318 317 316 317 319 319 318 318 319 319 318
330 330 331 331 331 330 330 329 329 329 329 330 329 328 328 327 327 327 326 326 325 325 325 324 323 323 323 322 323 323 324 324 323 322 322 321 321 320 320 320 320 319 318 319 319 318 319 318 318 318 320 321 324 326 323 319 317 318 319 318 318 318 317 316 315 315 316 317 317 317 317 317 317 317
328 328 328 328 328 327 327 327 326 325 326 327 327 326 326 325 325 324 324 324 324 324 324 323 323 323 323 323 323 323 322 323 322 322 320 319 318 318 318 317 317 317 317 318 318 318 318 318 318 318 318 318 321 324 323 318 316 317 317 316 317 317 316 315 315 314 314 314 315 315 315 314 315 316
327 326 326 326 325 324 324 323 322 322 322 323 323 323 322 322 322 321 321 321 321 321 321 321 320 320 321 321 321 320 319 319 319 318 318 316 316 316 315 314 313 315 316 317 318 318 318 318 317 316 315 315 316 318 318 317 316 317 316 315 316 316 315 314 314 313 313 313 313 312 313 313 314 314
325 325 324 324 323 322 321 320 320 319 319 319 319 319 319 319 319 319 319 318 317 317 318 317 317 317 317 318 317 317 316 316 315 315 315 315 314 314 314 313 312 314 315 315 316 317 317 316 315 313 311 312 313 313 314 314 314 315 315 315 315 315 314 313 313 312 312 312 312 311 312 313 313 313
324 323 323 323 322 321 320 319 318 317 317 317 317 317 317 317 317 317 316 316 315 315 315 315 315 315 315 315 315 315 314 314 314 313 313 313 313 313 312 312 312 313 312 313 314 314 313 313 313 311 310 311 312 312 312 313 313 315 316 316 315 314 313 312 312 311 311 312 311 311 311 311 311 311
323 322 322 321 321 320 319 318 317 316 316 316 316 316 316 316 315 315 314 314 314 313 313 313 313 313 313 313 314 314 313 313 313 313 313 312 312 312 311 311 311 311 311 311 313 312 311 311 312 311 310 310 311 312 313 314 315 315 315 315 316 314 312 311 311 311 311 310 310 310 310 310 309 309
322 321 321 320 320 319 319 318 317 316 315 315 314 315 315 315 314 314 314 313 313 313 312 312 312 312 312 312 312 312 312 312 311 311 312 311 311 310 310 310 311 310 310 311 312 312 311 311 311 311 310 310 311 312 313 314 313 312 312 313 314 313 312 312 311 311 310 309 309 309 310 309 309 309
320 320 319 319 319 318 317 317 317 316 315 314 313 312 312 312 312 312 311 311 311 311 310 310 310 310 310 309 309 309 310 309 308 309 310 309 309 309 309 309 309 310 310 310 310 310 310 310 310 310 310 310 310 311 312 312 311 311 311 311 312 311 311 312 312 311 310 309 309 309 309 309 309 309
318 317 317 317 317 316 315 315 315 315 314 314 313 312 311 311 311 310 310 309 309 309 309 309 308 308 308 308 307 308 308 307 307 308 308 307 307 308 308 308 308 309 309 310 309 309 309 309 309 309 309 310 310 310 311 311 311 311 311 310 310 310 310 311 313 312 310 310 310 309 309 309 308 307
316 315 315 315 315 314 313 313 313 313 313 313 313 312 311 311 311 310 309 309 308 308 308 308 308 308 308 307 307 307 307 306 307 307 307 306 307 308 308 308 308 308 308 309 309 308 308 308 308 309 309 309 309 309 310 310 310 310 310 310 310 310 310 310 311 311 310 310 310 309 309 309 308 307
Wind_Speed
9 10 10 9 9 8 8 9 9 9 9 7 5 6 5 2 0 0 1 3 2 5 8 5 2 3 4 6 6 7 9 10 7 5 8 11 10 7 8 12 12 10 11 11 11 13 14 15 16 15 15 15 15 16 16 16 16 17 17 15 14 13 14 11 6 5 5 3 2 0 2 1 1 1
9 10 10 10 10 9 8 9 10 9 9 8 8 7 5 3 2 3 1 3 4 5 8 7 4 5 7 7 7 8 10 11 9 7 7 9 8 8 12 14 12 10 11 10 10 11 13 15 15 14 14 14 15 15 15 15 15 16 16 16 14 14 14 11 7 6 5 4 3 3 1 1 2 2
10 10 11 11 11 10 10 10 10 10 9 9 9 8 6 5 4 6 5 2 4 6 8 9 8 9 10 8 8 10 10 10 9 8 7 9 10 11 14 14 13 11 10 9 8 9 11 13 14 14 14 14 15 15 15 14 14 14 14 15 14 14 14 12 7 5 5 4 4 3 2 3 3 3
10 11 10 11 11 10 10 11 11 11 11 11 10 9 9 7 6 7 8 5 6 9 9 10 11 10 10 9 8 9 9 9 9 10 11 12 13 14 15 15 12 10 9 8 6 8 10 12 13 14 14 13 14 15 14 14 14 14 14 13 14 13 14 13 9 5 4 2 4 4 3 3 4 4
11 11 10 11 11 11 11 12 12 12 12 12 12 11 10 9 8 9 10 7 6 9 9 10 11 10 10 10 9 8 8 9 10 11 13 14 15 16 16 12 8 7 7 6 5 6 8 10 12 13 13 13 14 14 14 14 14 14 14 13 13 13 12 12 11 8 4 1 2 5 4 2 3 4
12 12 12 12 12 12 13 13 13 12 12 12 12 11 10 9 7 8 9 6 5 7 8 10 10 9 9 9 9 8 9 10 10 10 12 13 14 15 14 9 6 6 6 5 5 5 7 9 11 13 13 12 13 13 13 14 14 15 15 14 13 13 12 11 11 10 7 2 2 4 5 3 2 3
12 12 13 13 12 12 13 14 13 12 12 11 11 11 11 11 8 5 5 5 5 6 7 8 8 7 8 9 9 10 11 12 12 11 11 11 12 14 14 13 10 7 6 5 5 5 6 8 10 11 12 12 12 12 13 14 15 15 16 16 15 14 13 11 11 11 10 6 1 4 5 5 4 3
12 12 13 13 13 12 14 14 13 13 13 12 11 11 10 10 10 8 6 6 6 6 7 7 7 8 11 12 11 12 13 14 13 12 11 10 10 11 11 11 11 6 4 5 7 5 5 7 8 9 10 11 12 12 13 14 15 16 17 17 17 16 14 13 12 11 10 9 4 2 5 5 5 4
13 13 13 13 12 12 13 13 13 13 13 12 11 11 11 11 10 9 8 7 6 6 7 8 10 12 12 13 13 13 13 14 14 13 12 12 10 10 9 7 5 2 2 7 10 7 5 7 6 8 9 10 11 11 13 14 15 16 17 18 18 17 16 15 13 12 11 10 8 3 3 5 5 5
14 14 13 14 13 12 12 13 12 12 11 11 12 11 9 9 9 7 6 7 7 7 8 10 12 13 11 13 15 14 13 13 13 13 13 13 13 11 10 8 4 2 4 8 12 11 7 5 4 6 7 9 11 11 13 14 15 15 16 17 18 18 18 17 15 14 13 12 11 8 3 2 4 5
14 13 13 14 13 12 12 13 13 11 9 9 10 10 8 7 8 7 6 7 8 9 10 10 11 11 11 12 14 14 13 11 11 12 12 14 14 12 11 10 6 4 5 5 9 11 7 4 2 4 5 7 10 10 12 14 15 16 16 16 17 18 18 18 17 16 15 14 13 12 9 4 2 4
13 13 12 10 9 9 11 12 12 10 7 6 6 6 5 5 8 9 8 8 8 9 9 10 10 11 12 12 12 12 12 11 10 11 11 13 14 13 14 13 9 5 5 3 6 11 9 5 2 2 3 6 8 9 12 13 14 16 15 15 16 17 17 18 18 18 17 16 16 15 13 11 6 2
12 11 10 9 10 10 10 11 11 10 9 9 9 8 8 7 9 9 7 7 8 8 8 10 12 12 13 12 11 11 11 11 12 12 12 13 14 14 14 12 8 5 4 2 6 11 10 7 4 2 1 4 7 8 10 13 14 15 15 15 15 15 16 17 17 18 18 17 18 17 16 15 12 8
8 8 8 9 12 12 10 9 11 11 12 13 14 13 13 12 12 11 10 9 8 7 9 10 11 12 13 13 11 11 11 12 13 14 13 13 13 10 10 9 7 4 3 2 6 9 9 8 6 4 4 1 4 7 9 11 13 14 14 14 14 14 14 15 15 16 17 17 18 18 17 17 17 15
6 7 8 10 12 12 11 11 11 12 12 13 15 15 15 15 14 14 13 12 10 10 11 12 11 12 13 13 12 12 11 12 13 13 11 10 9 7 5 6 6 3 2 3 4 5 6 7 6 7 9 5 3 5 7 9 11 13 14 13 13 13 13 13 13 14 14 15 16 16 17 17 17 18
8 8 9 10 10 9 9 11 11 12 13 13 14 13 13 13 14 15 15 15 15 14 13 14 15 15 14 15 14 13 13 14 13 12 10 9 8 8 6 6 8 5 3 4 5 5 6 8 9 10 10 7 3 2 4 7 9 11 13 13 13 13 13 12 12 12 12 12 13 14 15 16 16 17
13 12 11 11 10 9 9 11 13 14 13 13 13 13 12 12 13 15 17 17 17 16 16 18 19 17 15 16 17 17 16 15 14 13 13 11 10 10 9 10 10 7 3 4 6 5 7 9 11 12 10 7 4 2 2 4 6 9 11 12 13 14 14 14 13 12 11 10 10 11 12 13 14 16
15 14 12 12 12 12 11 13 14 14 13 12 13 14 14 14 14 14 16 17 16 17 17 18 20 19 17 17 18 18 18 18 16 16 15 13 11 11 10 10 9 6 4 4 4 5 7 11 12 12 10 8 6 3 0 2 4 7 9 11 13 14 16 15 13 13 12 10 9 9 9 10 12 13
15 14 12 11 12 12 13 12 11 12 12 12 13 15 15 16 16 18 19 18 17 17 17 18 20 22 22 21 20 20 22 22 21 20 19 16 13 10 9 8 7 6 5 4 4 4 7 10 12 14 13 10 8 6 3 2 1 5 7 10 13 14 15 15 15 16 16 13 11 9 7 7 8 10
13 12 12 12 11 11 12 13 12 12 13 13 13 14 14 14 17 19 21 20 18 17 17 18 20 21 21 22 21 21 23 24 22 21 18 15 13 11 8 7 8 7 5 6 5 4 5 6 7 13 16 12 10 9 7 4 1 3 6 9 11 12 14 15 15 17 18 17 15 12 8 6 7 7
11 10 10 11 12 10 10 13 14 13 13 13 13 13 13 13 15 17 19 20 19 18 19 20 20 19 18 19 20 20 23 24 22 17 15 15 14 12 9 7 9 8 7 7 6 5 6 5 3 8 13 13 12 11 10 7 4 3 6 7 9 10 13 14 14 15 17 18 18 16 11 7 6 7
10 11 9 10 11 11 11 13 15 14 14 14 13 12 13 14 14 14 15 16 16 17 19 20 19 18 18 18 20 23 26 28 24 19 19 20 16 12 10 8 7 8 7 7 6 5 5 2 4 5 5 7 11 11 10 9 7 5 5 5 5 8 11 11 11 12 14 16 18 18 15 11 9 8
7 8 8 7 7 8 9 12 13 14 14 13 11 11 12 14 13 12 11 13 14 16 18 18 18 17 17 17 20 22 26 28 26 22 23 23 18 13 12 12 10 6 6 8 8 5 1 3 5 4 2 1 4 8 9 8 7 6 4 2 3 6 9 8 8 10 11 13 17 18 17 15 12 9
6 6 6 6 6 6 7 9 11 12 13 13 12 12 13 14 14 13 12 13 14 16 18 18 17 17 18 18 19 21 23 25 25 23 23 22 20 17 15 18 16 9 7 9 8 4 1 3 5 4 2 2 1 4 4 3 5 5 4 3 5 4 7 6 4 7 10 12 15 16 17 16 13 12
5 5 4 5 4 4 7 9 11 13 14 15 16 16 17 19 20 20 20 21 20 20 21 20 20 19 20 21 20 20 21 21 21 22 22 18 17 16 16 19 19 13 11 10 7 5 4 4 5 4 3 1 3 4 3 4 5 5 6 5 4 2 5 5 4 6 10 12 13 13 13 14 14 13
6 6 3 2 4 7 10 11 12 13 13 14 14 15 17 19 21 23 26 27 25 25 24 24 24 22 21 23 23 23 24 21 17 18 20 16 14 14 14 17 18 17 13 9 7 7 6 6 4 4 5 4 5 6 6 6 3 2 4 3 1 1 4 6 6 6 8 10 11 11 9 9 12 12
6 5 4 6 8 9 10 11 11 10 10 11 11 12 13 16 18 19 21 21 21 21 22 22 23 23 22 22 21 19 18 14 10 11 12 12 12 11 11 12 14 15 13 9 7 7 8 8 5 3 4 4 5 5 6 6 6 6 4 5 6 5 7 8 6 5 5 6 6 8 8 7 8 10
5 6 7 9 9 8 8 9 8 9 10 11 12 13 14 14 15 16 16 15 14 15 17 18 20 21 20 17 12 10 12 12 11 11 12 13 14 16 18 16 15 14 13 11 10 8 8 8 5 2 2 2 3 5 6 7 6 8 8 6 5 6 7 8 5 4 4 4 4 6 7 6 6 6
6 6 7 9 8 6 5 7 8 9 10 12 14 16 15 14 14 14 15 14 13 14 15 16 15 12 9 9 11 14 15 14 13 12 12 14 16 18 19 17 15 13 13 13 13 11 7 5 4 2 1 1 3 5 6 7 6 6 7 5 4 5 7 7 5 4 3 3 5 6 6 5 5 4
7 6 7 8 7 5 4 6 8 8 9 12 16 16 14 14 14 13 13 12 11 11 9 4 1 7 13 17 19 20 19 17 15 14 15 15 15 15 16 15 12 12 12 11 9 9 6 4 6 6 3 1 2 4 6 7 6 5 4 3 3 4 6 6 5 5 5 6 7 7 5 5 4 1
6 6 6 6 6 4 4 5 6 7 10 14 16 15 14 13 12 11 11 10 6 2 4 11 17 21 24 24 23 22 21 19 16 14 15 15 13 13 14 13 12 12 11 7 5 8 6 4 7 8 5 1 1 2 3 3 4 6 5 3 5 5 6 7 8 8 8 9 9 7 4 6 5 2
5 6 6 7 7 5 4 6 9 10 12 14 15 15 14 13 12 11 9 9 10 13 17 22 25 26 25 24 23 22 21 20 18 15 14 13 12 11 11 11 12 11 9 5 5 5 5 5 8 8 5 3 1 2 1 1 3 5 4 6 7 4 6 8 9 10 11 10 9 7 5 7 5 3
7 9 9 10 9 7 6 9 12 12 13 14 14 15 15 15 16 15 15 16 17 18 20 22 23 23 23 22 22 22 21 20 17 15 15 14 11 9 10 11 10 8 6 5 3 3 5 9 9 6 4 4 2 1 1 2 4 6 7 8 6 5 7 8 9 10 10 8 8 7 6 7 3 5
10 13 13 12 13 14 12 12 13 13 13 13 13 14 16 18 18 18 18 18 17 18 20 21 21 22 22 22 21 21 20 18 14 12 13 12 9 8 9 10 8 6 5 4 3 5 8 11 10 8 6 4 2 1 3 0 5 6 6 6 6 7 8 8 8 8 9 8 6 5 7 7 5 7
14 15 15 14 15 15 15 14 14 13 12 11 11 13 16 18 19 19 19 18 19 20 20 21 21 20 20 19 17 17 15 13 12 11 11 10 9 8 8 8 7 5 4 5 6 7 9 9 10 12 8 3 5 5 5 2 4 5 5 6 6 6 7 8 7 7 8 8 7 5 8 7 7 7
16 15 15 14 13 14 13 13 14 14 13 12 11 13 15 17 17 17 16 16 17 18 19 19 18 17 16 15 14 12 10 9 11 12 11 11 11 11 10 8 7 7 7 7 7 8 8 7 8 12 10 3 5 4 4 3 2 3 4 6 5 4 6 7 7 8 8 7 8 8 8 9 9 6
15 15 14 13 13 13 12 13 14 16 16 14 13 14 14 15 16 16 15 16 17 18 17 17 17 15 14 13 11 11 10 9 9 11 12 12 13 13 13 12 12 11 10 9 7 5 5 6 6 9 10 6 3 1 4 5 4 3 4 4 3 3 4 5 6 8 7 7 9 10 8 8 9 7
15 14 13 13 12 12 12 12 14 15 16 16 15 15 15 15 15 15 16 17 17 17 16 16 16 15 14 13 13 14 14 14 14 14 14 14 14 14 14 14 13 12 10 9 8 4 3 5 8 10 10 7 4 3 3 2 1 2 4 4 1 2 4 6 6 7 6 6 9 10 8 7 8 9
15 14 13 12 12 12 11 12 13 14 15 16 16 15 15 15 15 15 16 17 17 16 16 16 15 15 16 15 15 15 15 16 17 16 16 15 14 13 12 11 11 11 11 11 9 7 8 9 9 10 10 8 4 4 5 7 8 7 5 2 2 1 5 6 4 4 5 5 7 9 9 8 6 7
14 15 14 13 13 13 12 11 12 13 14 15 15 15 15 15 15 14 15 15 15 15 15 15 13 14 15 15 14 14 15 15 15 14 13 13 11 11 11 9 8 9 10 10 11 12 12 10 9 9 8 7 6 6 7 8 9 9 5 5 5 1 3 4 3 2 3 5 6 8 10 11 9 8
14 14 14 13 13 12 11 11 11 13 14 13 12 12 12 12 13 13 12 12 12 12 13 13 13 12 13 13 13 13 13 12 12 11 10 9 9 9 9 8 6 6 6 7 9 10 9 8 7 7 7 7 8 9 8 7 7 9 6 3 5 4 0 2 3 2 3 4 6 6 8 10 10 9
14 14 14 13 13 12 11 10 10 11 11 12 11 11 10 10 10 10 10 10 10 11 11 11 12 11 11 11 11 10 9 8 8 8 7 7 7 8 7 6 5 4 4 5 6 7 7 6 5 6 7 7 8 8 7 6 7 9 8 6 3 2 4 4 2 2 4 5 5 4 5 6 6 7
13 13 13 12 12 12 12 11 10 9 8 9 9 9 9 10 9 9 9 9 9 10 10 9 10 9 9 10 10 8 6 6 7 6 6 6 6 6 6 6 5 4 3 4 5 6 6 7 6 5 6 7 8 7 6 6 7 6 7 7 5 6 9 7 4 1 5 6 4 3 3 3 3 4
11 11 11 11 11 12 11 10 10 9 8 8 8 8 8 8 8 8 9 9 9 9 9 8 8 7 7 7 8 6 5 6 6 5 6 7 6 4 3 3 3 3 3 4 5 6 7 7 7 6 5 6 6 6 6 7 6 5 6 7 7 7 8 5 5 4 5 6 5 5 4 3 2 4
10 10 10 10 9 11 11 10 9 9 8 7 7 7 7 7 6 6 7 8 8 9 9 6 5 5 6 7 7 5 5 6 6 4 5 6 5 3 2 2 2 3 2 2 3 5 6 6 6 5 5 5 5 5 6 6 6 5 7 8 8 6 6 5 4 3 4 4 5 7 6 4 3 5
Wind_Direction
275 279 278 279 279 282 288 291 293 298 306 310 299 287 281 279 317 201 291 302 305 304 302 297 282 276 296 310 301 278 283 291 281 273 292 289 277 273 304 320 319 311 311 316 327 336 339 344 349 353 360 4 4 5 5 5 5 6 10 11 13 16 17 27 59 82 94 102 66 306 269 330 115 141
270 275 280 285 287 289 292 291 290 293 300 301 294 281 262 252 235 189 205 286 273 295 316 316 312 317 313 308 308 292 289 301 286 257 292 304 288 291 303 304 300 298 300 305 318 334 342 349 354 359 5 7 8 9 12 13 12 12 14 14 15 16 20 33 63 83 103 132 102 89 167 202 164 159
264 265 269 277 282 285 285 286 290 294 295 290 288 285 272 258 239 215 208 237 269 288 312 315 311 313 309 303 302 293 291 304 291 261 281 304 294 291 297 294 285 284 291 295 310 332 348 356 0 6 10 11 12 13 16 19 21 21 20 19 19 19 23 34 53 69 87 139 144 110 127 166 170 171
261 264 266 269 271 275 278 282 286 287 288 285 279 278 273 263 250 236 219 215 268 282 296 308 308 310 311 311 305 294 292 307 310 295 295 304 301 293 291 286 275 273 280 286 307 335 351 1 6 12 16 16 15 16 18 20 24 27 28 26 24 23 23 30 39 48 59 117 159 160 158 156 173 183
258 265 269 271 272 274 276 278 281 282 283 284 279 272 263 256 255 252 236 224 262 286 297 307 310 313 314 315 315 310 303 305 311 309 306 308 305 296 294 291 279 271 273 278 302 334 352 3 8 15 21 21 20 19 16 18 25 30 33 31 30 29 26 26 31 33 33 40 192 187 181 162 175 192
258 262 266 271 270 269 271 269 270 274 277 281 287 290 289 284 272 252 237 230 259 289 303 312 317 321 318 316 316 310 304 301 301 303 307 308 309 312 324 341 334 290 274 280 299 328 355 0 6 16 23 25 25 21 15 20 27 31 35 34 32 33 31 28 27 28 32 35 228 210 197 187 186 206
255 256 260 266 265 266 271 270 271 277 282 289 295 299 306 312 311 293 265 263 269 277 294 308 315 319 317 315 309 301 300 302 300 300 307 313 319 327 342 4 3 320 278 283 297 317 350 356 3 15 24 29 28 23 21 27 32 32 35 37 35 34 34 33 30 27 30 39 110 208 206 199 201 219
253 257 261 264 265 269 275 278 282 286 287 294 300 304 312 316 315 313 302 291 287 292 304 307 303 307 311 308 306 304 303 304 302 300 307 321 331 337 345 3 9 343 280 294 306 311 336 346 360 13 23 31 31 29 31 36 37 35 34 36 37 37 38 38 36 32 29 33 52 174 199 198 201 214
252 259 263 267 271 276 280 284 290 292 296 306 311 316 326 324 313 311 312 310 305 301 305 306 304 308 311 306 306 311 308 307 308 304 308 320 324 332 340 347 354 333 285 307 299 289 311 327 350 13 20 31 35 37 41 42 43 39 35 35 37 38 41 44 42 40 38 35 39 64 180 194 195 202
254 256 261 266 269 273 277 281 286 292 307 316 305 301 319 331 323 314 313 315 311 300 293 296 301 304 306 304 306 312 309 306 309 306 307 313 311 318 335 342 343 334 332 311 281 269 286 307 338 9 14 28 37 41 46 47 46 44 37 34 35 36 40 44 45 44 44 44 42 44 59 177 193 195
248 250 255 261 265 269 272 274 280 288 304 315 307 301 305 315 314 307 304 305 304 303 299 297 300 301 303 303 303 309 310 301 300 304 305 307 306 313 327 334 335 325 338 321 259 253 267 273 310 356 4 27 36 41 47 48 48 47 42 35 32 33 36 39 41 42 42 45 46 45 46 56 161 190
246 248 251 252 257 267 268 269 278 285 284 289 300 300 291 301 309 307 305 293 286 300 306 301 299 297 296 295 292 302 310 301 295 302 306 306 307 311 315 321 325 317 334 343 236 239 247 240 240 326 360 26 31 37 45 48 47 47 46 41 33 29 31 33 36 39 39 41 43 46 49 51 58 119
245 252 252 248 249 255 259 264 266 261 254 258 267 266 264 283 299 298 289 271 268 286 296 295 298 294 290 288 282 284 291 289 292 301 305 305 306 306 302 305 315 325 343 347 216 223 231 230 232 256 344 28 25 31 41 46 46 44 44 45 39 32 29 29 30 33 35 37 39 44 51 55 56 60
253 265 267 263 263 260 258 263 263 260 260 262 263 262 264 273 282 279 268 257 256 266 270 277 289 291 291 293 289 283 279 280 291 301 304 304 306 308 302 302 319 338 332 264 208 211 223 230 230 212 186 176 8 19 34 42 44 42 40 42 41 38 33 29 28 28 30 33 36 40 47 54 57 58
263 268 264 267 277 275 266 265 267 271 274 270 265 267 267 268 269 267 264 263 261 257 255 260 268 276 286 292 297 300 291 282 289 297 299 298 298 303 304 304 314 314 271 263 243 224 220 215 202 189 192 214 319 4 30 40 43 40 37 36 38 40 38 34 30 27 26 28 31 35 41 48 54 57
251 254 254 258 269 268 260 263 269 274 278 276 273 275 274 269 263 260 261 264 266 262 257 260 266 269 273 278 286 291 283 277 283 289 288 285 283 282 271 271 286 285 256 268 271 242 209 194 189 196 213 236 276 335 28 39 39 33 31 32 34 35 36 35 33 30 27 26 26 29 33 39 46 52
251 254 259 259 254 248 254 268 275 278 279 279 279 283 283 277 268 262 259 259 265 268 266 267 269 270 271 276 279 277 271 269 271 276 277 271 267 268 262 263 275 278 253 257 263 244 210 195 192 204 225 241 239 240 25 39 31 24 27 32 35 35 32 29 27 26 26 25 25 26 28 32 38 43
253 254 257 260 259 259 263 271 278 282 283 281 281 282 281 276 270 266 263 261 263 269 270 270 271 270 270 272 273 272 269 264 259 263 268 262 253 259 272 278 273 254 237 244 250 243 220 202 196 203 219 230 229 230 253 49 23 21 29 35 36 35 31 29 28 27 24 20 21 25 27 29 31 34
263 259 254 258 267 275 278 275 270 270 272 274 277 279 279 277 274 272 273 272 271 272 275 275 274 272 270 267 266 269 270 264 260 264 267 261 252 254 268 272 250 230 225 216 223 254 232 208 199 199 206 222 231 225 212 194 32 32 38 39 36 32 29 32 37 35 31 26 22 20 21 24 24 27
274 271 270 274 278 285 291 285 270 263 268 273 276 274 272 274 276 276 278 279 277 276 277 277 277 278 276 269 264 267 269 264 262 266 265 254 246 244 244 238 229 222 210 200 211 254 249 228 207 194 198 216 231 222 212 209 169 80 58 41 34 31 28 31 37 38 35 32 28 22 14 13 22 31
261 266 280 285 277 271 279 280 272 270 275 278 276 270 269 272 275 277 281 282 281 279 278 277 278 277 275 269 263 263 265 261 258 261 258 248 239 229 216 215 219 215 205 200 206 229 243 247 202 180 193 215 233 227 208 202 195 128 89 52 35 31 29 30 35 37 35 31 28 26 24 26 42 52
255 258 268 280 276 266 262 266 267 271 279 284 281 275 274 276 275 278 284 285 283 283 282 281 280 275 271 267 261 258 259 259 257 255 251 249 242 223 209 210 206 197 199 206 209 224 245 226 130 146 185 218 232 228 210 204 203 160 111 70 50 42 32 30 34 36 37 32 27 28 35 47 59 59
280 279 279 285 286 271 261 264 270 276 285 293 293 285 281 279 278 280 281 277 278 283 283 282 282 280 276 268 260 260 262 262 260 255 248 247 245 230 213 204 193 181 195 207 205 211 255 62 94 110 73 94 207 206 203 214 212 174 134 100 107 68 41 34 38 39 41 36 27 27 33 45 62 69
311 312 298 284 278 275 276 283 289 296 302 304 302 298 294 288 285 284 276 269 274 281 280 275 274 276 276 269 264 265 264 260 258 251 243 239 237 230 218 205 195 179 172 185 189 189 147 61 75 89 73 48 139 166 179 240 253 216 186 177 171 105 44 35 44 47 46 39 29 25 25 31 49 71
341 341 307 271 275 304 310 312 312 312 311 306 300 296 293 288 285 283 277 272 272 274 273 272 273 275 273 269 265 259 252 250 247 236 227 222 217 214 211 204 190 164 148 164 175 160 121 83 65 60 52 2 346 2 342 310 285 222 184 168 185 167 57 55 63 60 52 40 26 18 19 25 34 50
27 31 16 308 322 320 315 318 319 317 314 311 306 301 296 292 289 285 282 279 276 272 269 269 271 271 271 272 270 260 250 244 232 214 206 202 196 190 191 190 176 151 135 144 162 154 121 87 67 55 44 15 353 351 329 316 341 136 151 117 84 156 109 88 77 73 62 43 24 11 11 31 39 37
14 22 7 335 329 322 317 320 325 330 333 332 329 325 317 309 303 297 294 290 284 276 270 266 266 266 268 272 268 252 236 224 202 180 174 174 170 156 146 152 148 134 124 121 129 137 119 91 75 70 54 17 347 340 322 323 2 27 45 73 73 81 98 95 84 76 62 36 26 19 8 19 40 39
353 357 352 340 332 326 328 339 355 2 356 353 352 348 339 332 326 321 315 305 293 284 276 267 264 265 265 262 244 205 183 170 155 139 128 123 119 112 109 112 114 109 104 98 92 96 106 98 80 78 91 32 329 320 327 332 347 4 20 56 65 50 66 82 71 53 40 13 18 28 14 13 31 34
5 2 351 342 336 330 342 5 18 12 2 1 360 354 347 344 341 333 321 306 290 285 280 271 266 260 243 210 178 160 148 137 129 120 107 95 93 97 98 98 99 92 86 83 72 56 53 62 46 37 100 65 325 311 323 330 327 343 7 24 25 30 51 62 52 60 81 44 20 21 12 2 7 6
9 4 347 338 337 336 347 1 6 9 14 11 5 360 355 352 349 343 333 320 301 291 289 281 170 134 133 133 132 130 121 110 103 101 96 90 89 94 95 94 90 83 82 82 58 29 21 22 21 22 39 64 360 327 327 335 337 338 345 360 40 54 49 51 66 90 84 44 15 11 358 330 328 313
358 357 354 357 356 345 346 2 13 26 29 18 9 7 5 3 3 355 344 339 331 325 103 106 108 114 118 117 114 112 109 106 104 107 108 104 100 102 103 96 87 82 88 87 31 22 42 44 19 11 5 10 350 325 332 345 325 310 318 30 77 58 28 48 74 67 44 24 9 6 353 329 328 173
339 344 355 9 11 8 29 50 49 44 36 25 18 18 20 25 32 31 28 47 76 96 106 108 107 108 107 106 104 104 105 103 101 105 110 103 94 99 105 94 82 80 85 77 50 58 60 18 3 360 349 339 300 294 319 342 300 311 2 62 77 54 31 52 59 39 25 17 8 5 348 328 333 147
339 349 352 357 10 28 55 58 52 48 42 34 29 31 38 45 52 57 63 72 82 92 99 101 102 102 101 100 101 101 99 97 95 99 102 92 82 91 96 86 77 75 68 50 42 33 343 338 347 356 338 321 313 253 236 311 351 16 47 59 58 53 52 51 42 29 21 5 356 356 341 334 10 120
5 16 22 27 38 48 50 47 45 48 48 44 41 44 48 51 56 62 67 75 84 91 94 96 98 99 100 100 100 100 98 94 89 91 94 88 84 95 97 87 78 67 46 20 358 348 341 340 347 351 329 299 288 201 190 229 23 42 57 49 47 58 53 38 29 26 13 357 1 358 334 347 57 93
30 33 36 39 43 45 44 40 38 40 45 49 52 53 52 52 56 60 63 71 80 84 87 90 94 95 96 97 98 98 97 92 84 85 85 78 73 82 95 96 88 65 30 6 354 351 350 346 344 343 334 245 194 194 199 170 70 65 61 49 55 58 35 18 15 15 9 12 30 12 329 347 53 75
39 36 35 34 35 38 40 38 34 38 48 55 58 58 56 52 53 56 59 67 74 76 77 80 82 83 86 90 89 85 83 83 85 85 77 65 59 61 68 72 62 41 21 4 352 348 350 347 343 344 341 285 203 197 187 167 105 70 61 57 59 41 19 20 23 18 14 16 24 17 357 7 33 44
43 40 38 37 35 35 35 33 33 42 55 61 60 60 59 55 54 59 68 73 73 73 73 72 71 72 73 73 67 59 57 64 75 75 67 63 61 56 48 38 26 19 12 358 346 341 346 354 6 10 4 348 323 60 126 141 130 98 59 35 37 35 30 38 36 23 14 3 5 12 15 8 0 349
46 44 41 40 41 38 37 36 38 45 55 63 66 66 66 64 63 67 73 73 71 74 76 72 69 68 67 62 55 53 55 57 59 58 55 52 52 46 35 25 16 11 1 347 343 347 21 48 53 43 27 12 2 21 36 30 44 43 10 351 20 62 35 37 35 18 7 359 358 1 359 344 335 329
52 47 42 44 46 43 42 43 44 48 55 63 69 71 71 72 72 72 71 68 66 68 70 68 66 66 63 59 56 57 59 57 54 51 47 44 43 39 27 16 11 4 352 348 3 39 68 68 57 38 23 13 353 339 334 317 313 321 320 271 174 49 8 18 24 5 6 13 2 354 350 345 345 349
57 52 45 45 46 46 47 48 53 63 68 68 69 69 69 70 70 70 70 68 64 62 61 61 63 62 58 54 51 51 52 49 45 42 39 37 33 24 10 2 2 0 355 360 21 42 50 45 31 23 23 14 347 331 318 308 319 334 316 231 210 244 3 21 20 358 16 23 6 355 356 359 3 9
56 57 51 47 46 46 47 49 57 68 73 72 71 71 70 68 67 65 64 63 62 60 57 55 56 54 51 48 46 43 40 37 34 29 24 18 11 3 355 348 350 1 3 6 15 23 27 24 16 12 8 359 351 345 327 317 354 24 22 300 249 237 239 36 34 38 38 20 7 2 1 2 3 1
49 56 54 50 49 49 47 48 52 55 58 60 63 65 65 66 66 62 58 55 53 51 50 46 42 40 38 35 34 35 32 24 13 5 1 358 353 345 341 343 355 4 3 4 11 15 15 13 11 10 5 356 349 343 338 347 13 26 22 8 341 290 307 316 323 50 32 17 14 9 353 350 358 353
46 50 47 45 49 50 45 43 42 42 46 51 53 54 55 55 54 50 46 44 42 39 36 32 28 27 24 16 14 16 13 358 348 341 339 336 334 332 336 346 356 353 346 356 5 8 6 1 357 358 1 357 352 347 347 353 353 350 353 2 1 337 324 303 249 262 359 354 352 349 327 316 332 333
43 48 44 43 51 51 44 40 38 35 37 41 41 43 43 41 42 44 39 35 32 27 24 24 23 20 14 9 7 4 351 342 340 338 332 326 321 318 318 327 341 346 351 2 3 1 2 360 352 338 326 332 347 344 324 319 331 343 342 334 321 321 327 299 227 244 315 322 325 327 309 282 298 324
36 35 33 38 52 52 42 36 32 28 28 31 32 34 34 32 39 44 30 17 15 12 6 5 15 15 5 357 356 355 352 344 335 323 326 328 323 317 323 342 344 331 331 357 5 359 355 348 341 336 328 321 322 311 299 306 319 311 297 289 281 288 306 292 254 266 307 318 329 328 309 288 304 326